This is the latest recevied weather packets stored in our database for station/object WY1B. If no packets are shown the sender has not sent any weather packets the latest 10 day(s).
| Time | Temp. | Humidity | Pressure | Rain* | Wind** | Luminosity | Snow |
|---|---|---|---|---|---|---|---|
| 1787884690 | 38.33° C | 23% | 1001.5 hPa | 0 mm | - | 0 W/m² | - |
| 1787884386 | 38.33° C | 26% | 1001.6 hPa | 0 mm | - | 0 W/m² | - |
| 1787884087 | 38.89° C | 24% | 1001.5 hPa | 0 mm | - | 0 W/m² | - |
| 1787883782 | 38.89° C | 22% | 1001.1 hPa | 0 mm | - | 0 W/m² | - |
| 1787883478 | 39.44° C | 21% | 1001.2 hPa | 0 mm | - | 0 W/m² | - |
| 1787883177 | 40° C | 21% | 1001.1 hPa | 0 mm | - | 0 W/m² | - |
| 1787882872 | 40° C | 21% | 1001.1 hPa | 0 mm | - | 1 W/m² | - |
| 1787882569 | 40.56° C | 20% | 1000.9 hPa | 0 mm | - | 2 W/m² | - |
| 1787882269 | 40.56° C | 20% | 1001 hPa | 0 mm | - | 3 W/m² | - |
| 1787881964 | 40.56° C | 20% | 1000.8 hPa | 0 mm | - | 4 W/m² | - |
| 1787881659 | 41.11° C | 19% | 1001 hPa | 0 mm | - | 7 W/m² | - |
| 1787881356 | 41.11° C | 19% | 1000.8 hPa | 0 mm | - | 9 W/m² | - |
| 1787881056 | 41.11° C | 20% | 1000.7 hPa | 0 mm | - | 13 W/m² | - |
| 1787880751 | 41.67° C | 19% | 1000.5 hPa | 0 mm | - | 16 W/m² | - |
| 1787880450 | 41.67° C | 19% | 1000.7 hPa | 0 mm | - | 20 W/m² | - |
| 1787880144 | 41.67° C | 18% | 1000.5 hPa | 0 mm | - | 23 W/m² | - |
| 1787879839 | 42.22° C | 18% | 1000.7 hPa | 0 mm | - | 26 W/m² | - |
| 1787879535 | 42.78° C | 18% | 1000.7 hPa | 0 mm | - | 30 W/m² | - |
| 1787879230 | 43.33° C | 17% | 1000.8 hPa | 0 mm | - | 34 W/m² | - |
| 1787878928 | 43.89° C | 17% | 1000.8 hPa | 0 mm | - | 39 W/m² | - |
| 1787878626 | 43.89° C | 17% | 1001.2 hPa | 0 mm | - | 46 W/m² | - |
| 1787878321 | 43.89° C | 16% | 1000.9 hPa | 0 mm | - | 56 W/m² | - |
| 1787878017 | 43.89° C | 16% | 1001 hPa | 0 mm | - | 62 W/m² | - |
| 1787877713 | 43.89° C | 17% | 1001.1 hPa | 0 mm | - | 58 W/m² | - |
| 1787877408 | 43.89° C | 17% | 1000.8 hPa | 0 mm | - | 63 W/m² | - |
* Rain latest hour (hover to see other rain measurements)
** Current wind speed in m/s (hover to see current wind gust speed)